| time (UTC) | temp F | wind direction | speed MPH | gust MPH | rain 1hr in | rain 24hr in | rain mn in | humidity % | barometer mb |
| 20260509103732 | 69 | 204 | 6.0 | 13.0 | 0.00 | 0.00 | 0.00 | 93 | 1007.0 |
| 20260509102732 | 69 | 204 | 6.0 | 13.0 | 0.00 | 0.00 | 0.00 | 93 | 1007.0 |
| 20260509100732 | 69 | 204 | 6.0 | 13.0 | 0.00 | 0.00 | 0.00 | 93 | 1007.0 |
| 20260509095732 | 68 | 189 | 8.0 | 16.0 | 0.00 | 0.00 | 0.00 | 93 | 1007.4 |
| 20260509094732 | 68 | 189 | 8.0 | 16.0 | 0.00 | 0.00 | 0.00 | 93 | 1007.4 |
| 20260509093732 | 68 | 189 | 8.0 | 16.0 | 0.00 | 0.00 | 0.00 | 93 | 1007.4 |
| 20260509092732 | 68 | 189 | 8.0 | 16.0 | 0.00 | 0.00 | 0.00 | 93 | 1007.4 |
| 20260509085732 | 69 | 223 | 4.0 | 8.0 | 0.00 | 0.00 | 0.00 | 92 | 1009.9 |
| 20260509084733 | 69 | 223 | 4.0 | 8.0 | 0.00 | 0.00 | 0.00 | 92 | 1009.9 |
| 20260509082732 | 69 | 223 | 4.0 | 8.0 | 0.00 | 0.00 | 0.00 | 92 | 1009.9 |
| 20260509081731 | 69 | 223 | 4.0 | 8.0 | 0.00 | 0.00 | 0.00 | 92 | 1009.9 |
| 20260509075731 | 69 | 200 | 2.0 | 4.0 | 0.00 | 0.00 | 0.00 | 91 | 1010.3 |
| 20260509074732 | 69 | 200 | 2.0 | 4.0 | 0.00 | 0.00 | 0.00 | 91 | 1010.3 |
| 20260509073731 | 69 | 200 | 2.0 | 4.0 | 0.00 | 0.00 | 0.00 | 91 | 1010.3 |
| 20260509065733 | 69 | 0 | 0.0 | 0.0 | 0.00 | 0.00 | 0.00 | 90 | 1010.3 |
| 20260509064731 | 69 | 0 | 0.0 | 0.0 | 0.00 | 0.00 | 0.00 | 90 | 1010.3 |
| 20260509063731 | 69 | 0 | 0.0 | 0.0 | 0.00 | 0.00 | 0.00 | 90 | 1010.3 |
| 20260509062732 | 69 | 0 | 0.0 | 0.0 | 0.00 | 0.00 | 0.00 | 90 | 1010.3 |
| 20260509061731 | 69 | 0 | 0.0 | 0.0 | 0.00 | 0.00 | 0.00 | 90 | 1010.3 |
| 20260509060731 | 69 | 0 | 0.0 | 0.0 | 0.00 | 0.00 | 0.00 | 90 | 1010.3 |
| 20260509055732 | 70 | 180 | 2.0 | 4.0 | 0.00 | 0.00 | 0.00 | 88 | 1009.9 |
| 20260509054732 | 70 | 180 | 2.0 | 4.0 | 0.00 | 0.00 | 0.00 | 88 | 1009.9 |
| 20260509052731 | 70 | 180 | 2.0 | 4.0 | 0.00 | 0.00 | 0.00 | 88 | 1009.9 |
| 20260509050731 | 70 | 180 | 2.0 | 4.0 | 0.00 | 0.00 | 0.00 | 88 | 1009.9 |
| 20260509044731 | 72 | 162 | 2.0 | 4.0 | 0.00 | 0.00 | 0.00 | 87 | 1010.0 |
| 20260509042731 | 72 | 162 | 2.0 | 4.0 | 0.00 | 0.00 | 0.00 | 87 | 1010.0 |
| 20260509041732 | 72 | 162 | 2.0 | 4.0 | 0.00 | 0.00 | 0.00 | 87 | 1010.0 |
| 20260509040731 | 72 | 162 | 2.0 | 4.0 | 0.00 | 0.00 | 0.00 | 87 | 1010.0 |
| 20260509035731 | 72 | 141 | 2.0 | 6.0 | 0.00 | 0.00 | 0.00 | 86 | 1009.1 |
| 20260509034731 | 72 | 141 | 2.0 | 6.0 | 0.00 | 0.00 | 0.00 | 86 | 1009.1 |
| 20260509033731 | 72 | 141 | 2.0 | 6.0 | 0.00 | 0.00 | 0.00 | 86 | 1009.1 |
| 20260509032731 | 72 | 141 | 2.0 | 6.0 | 0.00 | 0.00 | 0.00 | 86 | 1009.1 |
| 20260509031732 | 72 | 141 | 2.0 | 6.0 | 0.00 | 0.00 | 0.00 | 86 | 1009.1 |
| 20260509030734 | 72 | 141 | 2.0 | 6.0 | 0.00 | 0.00 | 0.00 | 86 | 1009.1 |
| 20260509025731 | 72 | 0 | 0.0 | 4.0 | 0.00 | 0.00 | 0.00 | 84 | 1008.7 |
| 20260509024733 | 72 | 0 | 0.0 | 4.0 | 0.00 | 0.00 | 0.00 | 84 | 1008.7 |
| 20260509023732 | 72 | 0 | 0.0 | 4.0 | 0.00 | 0.00 | 0.00 | 84 | 1008.7 |
| 20260509022733 | 72 | 0 | 0.0 | 4.0 | 0.00 | 0.00 | 0.00 | 84 | 1008.7 |
| 20260509020732 | 72 | 0 | 0.0 | 4.0 | 0.00 | 0.00 | 0.00 | 84 | 1008.7 |
| 20260509015732 | 73 | 158 | 0.0 | 4.0 | 0.00 | 0.00 | 0.00 | 82 | 1008.2 |
| 20260509014732 | 73 | 158 | 0.0 | 4.0 | 0.00 | 0.00 | 0.00 | 82 | 1008.2 |
| 20260509013732 | 73 | 158 | 0.0 | 4.0 | 0.00 | 0.00 | 0.00 | 82 | 1008.2 |
| 20260509012734 | 73 | 158 | 0.0 | 4.0 | 0.00 | 0.00 | 0.00 | 82 | 1008.2 |
| 20260509011732 | 73 | 158 | 0.0 | 4.0 | 0.00 | 0.00 | 0.00 | 82 | 1008.2 |
| 20260509010732 | 73 | 158 | 0.0 | 4.0 | 0.00 | 0.00 | 0.00 | 82 | 1008.2 |
| 20260509005733 | 73 | 159 | 2.0 | 6.0 | 0.00 | 0.00 | 0.00 | 80 | 1007.9 |
| 20260509004732 | 73 | 159 | 2.0 | 6.0 | 0.00 | 0.00 | 0.00 | 80 | 1007.9 |
| 20260509003732 | 73 | 159 | 2.0 | 6.0 | 0.00 | 0.00 | 0.00 | 80 | 1007.9 |
| 20260509002732 | 73 | 159 | 2.0 | 6.0 | 0.00 | 0.00 | 0.00 | 80 | 1007.9 |
| 20260508235732 | 73 | 159 | 4.0 | 14.0 | 0.00 | 0.00 | 0.00 | 78 | 1007.9 |
| 20260508233732 | 73 | 159 | 4.0 | 14.0 | 0.00 | 0.00 | 0.00 | 78 | 1007.9 |
| 20260508230732 | 73 | 159 | 4.0 | 14.0 | 0.00 | 0.00 | 0.00 | 78 | 1007.9 |
| 20260508225731 | 73 | 148 | 4.0 | 6.0 | 0.00 | 0.00 | 0.00 | 78 | 1008.6 |
| 20260508224732 | 73 | 148 | 4.0 | 6.0 | 0.00 | 0.00 | 0.00 | 78 | 1008.6 |
| 20260508223732 | 73 | 148 | 4.0 | 6.0 | 0.00 | 0.00 | 0.00 | 78 | 1008.6 |
| 20260508222732 | 73 | 148 | 4.0 | 6.0 | 0.00 | 0.00 | 0.00 | 78 | 1008.6 |
| 20260508221733 | 73 | 148 | 4.0 | 6.0 | 0.00 | 0.00 | 0.00 | 78 | 1008.6 |
| 20260508220732 | 73 | 148 | 4.0 | 6.0 | 0.00 | 0.00 | 0.00 | 78 | 1008.6 |
| 20260508214731 | 69 | 155 | 10.0 | 16.0 | 0.00 | 0.00 | 0.00 | 85 | 1008.1 |
| 20260508212733 | 69 | 155 | 10.0 | 16.0 | 0.00 | 0.00 | 0.00 | 85 | 1008.1 |
| 20260508211732 | 69 | 155 | 10.0 | 16.0 | 0.00 | 0.00 | 0.00 | 85 | 1008.1 |
| 20260508210734 | 69 | 155 | 10.0 | 16.0 | 0.00 | 0.00 | 0.00 | 85 | 1008.1 |
| 20260508204731 | 72 | 185 | 6.0 | 13.0 | 0.00 | 0.00 | 0.00 | 71 | 1010.8 |
| 20260508203732 | 72 | 185 | 6.0 | 13.0 | 0.00 | 0.00 | 0.00 | 71 | 1010.8 |
| 20260508202731 | 72 | 185 | 6.0 | 13.0 | 0.00 | 0.00 | 0.00 | 71 | 1010.8 |
| 20260508200732 | 72 | 185 | 6.0 | 13.0 | 0.00 | 0.00 | 0.00 | 71 | 1010.8 |
| 20260508195731 | 70 | 164 | 6.0 | 13.0 | 0.00 | 0.00 | 0.00 | 71 | 1010.9 |
| 20260508194732 | 70 | 164 | 6.0 | 13.0 | 0.00 | 0.00 | 0.00 | 71 | 1010.9 |
| 20260508193731 | 70 | 164 | 6.0 | 13.0 | 0.00 | 0.00 | 0.00 | 71 | 1010.9 |
| 20260508191731 | 70 | 164 | 6.0 | 13.0 | 0.00 | 0.00 | 0.00 | 71 | 1010.9 |
| 20260508190731 | 70 | 164 | 6.0 | 13.0 | 0.00 | 0.00 | 0.00 | 71 | 1010.9 |
| 20260508185732 | 71 | 157 | 4.0 | 10.0 | 0.00 | 0.00 | 0.00 | 68 | 1011.6 |
| 20260508183731 | 71 | 157 | 4.0 | 10.0 | 0.00 | 0.00 | 0.00 | 68 | 1011.6 |
| 20260508182731 | 71 | 157 | 4.0 | 10.0 | 0.00 | 0.00 | 0.00 | 68 | 1011.6 |
| 20260508175732 | 71 | 177 | 6.0 | 13.0 | 0.00 | 0.00 | 0.00 | 68 | 1012.4 |
| 20260508174731 | 71 | 177 | 6.0 | 13.0 | 0.00 | 0.00 | 0.00 | 68 | 1012.4 |
| 20260508173731 | 71 | 177 | 6.0 | 13.0 | 0.00 | 0.00 | 0.00 | 68 | 1012.4 |
| 20260508172731 | 71 | 177 | 6.0 | 13.0 | 0.00 | 0.00 | 0.00 | 68 | 1012.4 |
| 20260508171731 | 71 | 177 | 6.0 | 13.0 | 0.00 | 0.00 | 0.00 | 68 | 1012.4 |
| 20260508170731 | 71 | 177 | 6.0 | 13.0 | 0.00 | 0.00 | 0.00 | 68 | 1012.4 |
| 20260508165731 | 68 | 149 | 2.0 | 8.0 | 0.00 | 0.00 | 0.00 | 74 | 1013.3 |
| 20260508164731 | 68 | 149 | 2.0 | 8.0 | 0.00 | 0.00 | 0.00 | 74 | 1013.3 |
| 20260508163731 | 68 | 149 | 2.0 | 8.0 | 0.00 | 0.00 | 0.00 | 74 | 1013.3 |
| 20260508162731 | 68 | 149 | 2.0 | 8.0 | 0.00 | 0.00 | 0.00 | 74 | 1013.3 |
| 20260508160731 | 68 | 149 | 2.0 | 8.0 | 0.00 | 0.00 | 0.00 | 74 | 1013.3 |
| 20260508155732 | 66 | 140 | 4.0 | 8.0 | 0.00 | 0.00 | 0.00 | 74 | 1013.8 |
| 20260508154731 | 66 | 140 | 4.0 | 8.0 | 0.00 | 0.00 | 0.00 | 74 | 1013.8 |
| 20260508152731 | 66 | 140 | 4.0 | 8.0 | 0.00 | 0.00 | 0.00 | 74 | 1013.8 |
| 20260508151732 | 66 | 140 | 4.0 | 8.0 | 0.00 | 0.00 | 0.00 | 74 | 1013.8 |
| 20260508150731 | 66 | 140 | 4.0 | 8.0 | 0.00 | 0.00 | 0.00 | 74 | 1013.8 |